TimeCST,TemperatureF,Dew PointF,Humidity,Sea Level PressureIn,VisibilityMPH,Wind Direction,Wind SpeedMPH,Gust SpeedMPH,PrecipitationIn,Events,Conditions,WindDirDegrees,DateUTC
12:42 AM,21.2,19.4,93,29.73,2.0,North,27.6,35.7,0.00,Snow,Light Snow,350,2013-02-11 06:42:00
12:53 AM,21.9,19.0,89,29.78,2.5,North,27.6,34.5,0.00,Snow,Light Snow,350,2013-02-11 06:53:00
1:09 AM,21.2,19.4,93,29.74,3.0,North,27.6,-,0.00,Snow,Light Snow,350,2013-02-11 07:09:00
1:53 AM,21.9,19.0,89,29.80,2.5,North,24.2,31.1,0.00,Snow,Light Snow,360,2013-02-11 07:53:00
2:18 AM,21.2,19.4,93,29.76,1.8,North,26.5,35.7,0.00,Snow,Light Snow,360,2013-02-11 08:18:00
2:26 AM,21.2,19.4,93,29.77,2.0,North,21.9,32.2,0.00,Snow,Light Snow,350,2013-02-11 08:26:00
2:53 AM,21.9,19.0,89,29.82,3.0,NNW,25.3,31.1,0.00,Snow,Light Snow,340,2013-02-11 08:53:00
2:57 AM,21.2,19.4,93,29.78,1.5,NNW,27.6,33.4,0.00,Snow,Light Snow,340,2013-02-11 08:57:00
3:07 AM,19.4,17.6,93,29.78,0.8,NNW,26.5,34.5,0.00,Snow,Light Snow,340,2013-02-11 09:07:00
3:14 AM,19.4,17.6,93,29.78,2.0,NNW,25.3,35.7,0.00,Snow,Light Snow,340,2013-02-11 09:14:00
3:23 AM,19.4,17.6,93,29.78,6.0,NNW,20.7,31.1,0.00,Snow,Light Snow,340,2013-02-11 09:23:00
3:44 AM,19.4,15.8,86,29.79,5.0,NNW,24.2,31.1,0.00,Snow,Light Snow,340,2013-02-11 09:44:00
3:53 AM,19.0,16.0,88,29.83,4.0,NNW,25.3,32.2,0.00,Snow,Light Snow,340,2013-02-11 09:53:00
4:53 AM,18.0,15.1,88,29.86,8.0,NNW,23.0,-,0.00,Snow,Light Snow,340,2013-02-11 10:53:00
5:53 AM,17.1,14.0,88,29.88,5.0,NNW,23.0,-,0.00,,Overcast,340,2013-02-11 11:53:00
6:53 AM,16.0,12.0,84,29.91,6.0,NNW,23.0,33.4,N/A,,Overcast,340,2013-02-11 12:53:00
7:35 AM,15.8,12.2,86,29.87,8.0,NNW,24.2,27.6,N/A,,Overcast,330,2013-02-11 13:35:00
7:53 AM,16.0,10.9,81,29.93,10.0,NNW,19.6,-,N/A,,Overcast,340,2013-02-11 13:53:00
8:53 AM,15.1,10.9,84,29.95,5.0,NNW,19.6,25.3,0.00,Snow,Light Snow,340,2013-02-11 14:53:00
9:16 AM,15.8,10.4,79,29.91,9.0,NNW,17.3,25.3,0.00,Snow,Light Snow,340,2013-02-11 15:16:00
9:53 AM,16.0,10.9,81,29.96,5.0,NNW,16.1,-,0.00,Snow,Light Snow,330,2013-02-11 15:53:00
10:37 AM,15.8,10.4,79,29.92,7.0,NNW,20.7,-,0.00,Snow,Light Snow,330,2013-02-11 16:37:00
10:53 AM,16.0,10.0,77,29.98,9.0,NNW,19.6,-,0.00,Snow,Light Snow,330,2013-02-11 16:53:00
11:53 AM,18.0,10.9,74,29.99,9.0,NNW,19.6,-,0.00,Snow,Light Snow,330,2013-02-11 17:53:00
12:53 PM,19.0,12.0,74,29.99,9.0,NNW,16.1,-,0.00,Snow,Light Snow,330,2013-02-11 18:53:00
1:53 PM,21.0,12.9,71,29.99,9.0,NNW,11.5,-,0.00,,Overcast,330,2013-02-11 19:53:00
2:53 PM,23.0,14.0,68,29.98,10.0,NW,9.2,-,0.00,,Mostly Cloudy,310,2013-02-11 20:53:00
3:53 PM,21.9,14.0,72,29.98,10.0,West,8.1,-,N/A,,Scattered Clouds,280,2013-02-11 21:53:00
4:53 PM,21.0,14.0,74,29.98,10.0,West,8.1,-,N/A,,Scattered Clouds,280,2013-02-11 22:53:00
5:40 PM,17.6,12.2,79,29.92,10.0,WSW,5.8,-,N/A,,Mostly Cloudy,250,2013-02-11 23:40:00
5:53 PM,19.0,14.0,81,29.98,10.0,West,4.6,-,N/A,,Mostly Cloudy,260,2013-02-11 23:53:00
6:53 PM,14.0,10.0,84,29.99,10.0,WSW,8.1,-,N/A,,Mostly Cloudy,250,2013-02-12 00:53:00
7:53 PM,16.0,10.0,77,29.98,10.0,WSW,9.2,-,N/A,,Mostly Cloudy,240,2013-02-12 01:53:00
8:53 PM,16.0,10.0,77,29.97,10.0,SW,8.1,-,N/A,,Overcast,220,2013-02-12 02:53:00
9:53 PM,17.1,12.0,81,29.95,10.0,SSW,6.9,-,N/A,,Overcast,200,2013-02-12 03:53:00
10:46 PM,15.8,10.4,79,29.87,10.0,South,11.5,-,N/A,,Mostly Cloudy,180,2013-02-12 04:46:00
10:53 PM,16.0,10.9,81,29.92,10.0,South,11.5,-,N/A,,Mostly Cloudy,180,2013-02-12 04:53:00
11:53 PM,17.1,12.9,84,29.88,10.0,South,12.7,-,N/A,,Partly Cloudy,180,2013-02-12 05:53:00